User: anonymous   Login
Location: Laverne
(36.7100°N, 99.8930°W)
Time: 06:11:57
(UTC-05:00)
Language:

Iridium 32 - Orbit

View from above orbital plane
View from above orbital plane
View from above satellite
View from above satellite

Ground track
Ground track

The orbit data is extracted from the following two-line orbital elements,

1 24945U 97051B   14297.43818120  .00000393  00000-0  13334-3 0   562
2 24945 086.3953 331.2199 0002251 107.2711 252.8732 14.34216859895854
Epoch (UTC): 24 October 2014 10:30:58
Eccentricity: 0.0002251
inclination: 86.3953°
perigee height: 776 km
apogee height: 779 km
right ascension of ascending node: 331.2199°
argument of perigee: 107.2711°
revolutions per day: 14.34216859
mean anomaly at epoch: 252.8732°
orbit number at epoch: 89585

The dashed part of the orbit path shows where the satellite is in the earth's shadow,  

DLR